Volver al catálogo

SL-3 R/B

ActivoPO
NORAD 6257·ROCKET BODY·🇷🇺 Russia

Lanzado Oct 26, 1972 desde Plesetsk Cosmodrome

Loading…

Próximos Pases (próximas 24 horas)

TLE

ActualizadoSource: Space-Track

Época: Sep 14, 2026, 09:40 UTC

1 06257U 72085B   26257.40309507  .00000134  00000-0  71889-4 0  9997
2 06257  81.2584 137.2804 0056966 346.4308  13.5326 14.06892349763849

Sigue SL-3 R/B en tiempo real con AllMySat

Download on the App Store